Temp
52 52 52 52 52 52 53 52 53 53 53 54 54 54 53 52 52 47 44 46 42 38 41 44 45 39 40 39 34 39 39 41 40 34 33 34 31 32 31 34 30 29 30 30 30 25 23 42 41 31 37 41 41 40
52 52 52 52 52 52 52 52 52 52 53 53 54 54 53 53 52 50 42 46 46 39 39 42 46 48 45 45 40 40 38 39 41 35 33 32 30 29 28 21 40 31 33 30 29 27 37 40 39 43 42 41 40 40
52 52 52 51 51 51 51 52 52 52 53 53 53 54 54 53 52 50 43 45 42 38 39 40 38 48 50 48 49 37 41 45 42 42 36 31 29 30 21 27 36 39 38 34 33 36 36 40 43 44 45 42 43 43
51 51 51 51 51 51 51 51 52 52 52 52 53 53 53 53 53 50 43 44 42 39 33 36 48 46 54 49 46 46 45 43 43 40 35 35 30 34 34 37 36 37 37 34 33 35 39 43 45 44 43 43 43 44
50 51 51 51 51 51 51 51 51 52 52 52 53 53 53 52 51 49 45 44 45 40 34 35 41 46 50 50 47 45 44 41 40 37 32 31 32 33 33 35 34 38 35 33 32 37 35 38 43 43 42 42 43 42
50 50 50 50 50 51 51 51 51 52 52 53 53 53 52 52 49 45 40 44 46 44 36 31 40 43 47 49 47 44 43 42 41 36 35 32 35 39 34 31 38 41 42 40 35 39 40 41 43 45 42 43 44 43
49 49 49 50 50 50 50 51 52 52 52 52 53 52 51 51 45 41 39 43 47 45 36 32 34 44 49 50 46 43 45 43 41 39 33 32 34 41 37 32 38 41 41 40 39 42 40 43 39 44 44 44 44 44
49 49 49 49 50 50 50 51 51 52 52 52 51 51 50 49 46 42 45 47 46 41 39 32 33 37 49 42 41 45 42 43 41 40 38 35 40 40 34 38 41 39 37 39 43 44 42 43 44 44 45 43 41 41
49 49 49 49 49 50 50 51 51 51 51 50 50 50 45 43 40 42 50 49 46 41 34 34 32 31 44 43 44 43 44 37 42 37 38 38 35 32 37 37 33 36 38 39 42 43 42 41 42 43 42 41 40 40
49 49 50 50 49 50 50 51 51 51 50 49 45 42 37 41 50 50 43 38 38 38 37 33 38 35 39 38 40 40 42 37 34 36 40 36 35 40 40 36 36 38 41 41 35 37 38 39 40 42 40 41 41 40
49 49 50 50 50 50 50 50 50 50 49 43 40 39 44 51 43 40 35 34 34 31 35 36 36 34 41 35 37 41 36 37 31 35 35 33 33 37 39 36 38 38 38 38 39 40 41 41 42 41 40 41 41 41
49 49 50 50 50 50 50 50 49 45 43 43 43 45 44 40 38 34 33 34 33 31 36 35 36 38 38 41 35 36 33 34 29 39 35 31 34 37 36 36 38 39 39 38 39 40 41 42 42 41 41 40 40 40
49 49 49 50 50 51 50 49 49 48 47 45 42 38 37 36 29 30 27 32 33 37 37 38 36 38 38 39 36 34 34 29 40 34 32 34 34 35 36 37 38 37 37 38 38 40 42 41 42 40 40 41 41 40
49 49 49 49 50 50 50 49 49 48 44 38 36 30 32 31 31 33 33 36 41 41 41 41 40 38 39 35 35 34 35 38 31 31 29 30 32 35 36 38 37 36 36 36 37 39 40 39 39 40 40 41 40 39
48 48 49 49 50 50 50 49 49 46 42 36 36 30 32 36 37 38 40 40 42 43 41 39 40 40 37 37 34 33 32 31 31 23 23 31 34 35 36 37 37 36 36 36 37 38 39 39 38 38 39 41 40 41
48 48 48 50 50 50 49 48 45 44 41 38 36 34 36 36 36 36 39 39 44 42 42 41 39 37 35 32 32 32 28 25 24 24 27 32 34 35 35 37 38 38 37 36 37 37 38 38 37 37 39 41 41 40
48 46 49 49 50 49 48 43 42 39 37 36 34 39 36 37 38 40 43 41 45 41 38 38 36 34 38 31 30 28 25 27 29 31 31 33 34 34 36 37 38 38 37 36 36 37 36 37 38 36 34 37 40 40
45 47 50 49 47 45 42 43 40 37 34 36 33 35 38 37 37 40 43 44 42 40 41 40 42 35 31 31 26 30 32 33 33 34 34 35 35 36 38 36 38 38 36 36 36 35 35 35 35 34 35 36 38 39
47 48 49 49 47 42 38 38 40 34 35 36 36 36 40 41 41 44 44 44 44 44 41 40 39 33 33 34 34 33 34 35 33 34 35 37 37 38 37 37 37 36 35 35 34 34 34 34 33 34 35 35 35 35
49 48 47 48 47 40 36 37 42 35 33 35 36 34 35 38 41 43 44 43 42 40 38 38 39 40 38 39 38 38 37 37 36 34 34 35 37 37 35 34 33 34 34 34 34 35 33 34 35 34 34 34 33 32
46 46 47 46 43 42 40 37 36 37 36 34 37 35 36 39 40 40 40 44 40 38 38 41 40 40 40 40 41 40 40 39 36 36 35 33 34 34 34 33 34 32 31 30 31 31 33 30 31 32 33 33 33 33
43 47 43 44 41 41 39 38 36 36 34 38 39 39 37 37 38 39 42 39 39 41 42 41 40 40 42 42 41 41 41 40 37 37 38 37 33 32 32 33 33 30 30 30 31 30 30 31 32 32 31 31 32 31
45 44 41 41 37 36 36 41 36 39 34 37 39 36 36 37 40 44 37 38 38 42 42 42 42 43 42 42 43 42 43 42 36 36 36 33 32 33 32 32 33 31 30 31 31 31 30 33 31 31 31 31 30 29
45 40 36 35 35 33 39 36 37 37 36 36 36 33 36 38 41 37 33 33 38 41 41 42 44 40 41 41 39 38 37 39 35 34 34 35 32 30 32 32 32 31 31 31 31 31 31 31 31 30 30 29 29 28
34 34 34 30 36 34 32 34 34 34 33 34 35 34 36 39 33 33 34 35 36 37 38 40 40 42 37 34 34 34 36 38 36 32 32 33 31 31 30 31 31 30 31 32 31 31 30 31 30 30 29 28 27 26
26 33 32 34 34 34 33 32 31 32 34 35 35 38 39 32 33 33 35 36 36 37 38 41 37 35 34 36 34 34 34 34 37 31 31 32 32 31 30 30 30 31 31 32 32 31 31 31 30 29 28 27 26 26
29 31 32 38 35 35 34 36 35 33 34 35 36 35 34 30 31 34 39 39 39 39 41 41 41 40 36 32 32 33 33 34 35 34 33 33 33 33 32 31 31 30 32 33 31 31 30 29 29 28 27 27 26 26
35 36 32 34 36 36 35 36 36 34 36 40 38 34 32 33 33 36 39 40 41 42 41 39 38 37 35 34 36 36 36 36 36 36 35 33 32 31 32 33 33 32 32 31 30 30 29 28 28 27 26 25 25 26
35 38 36 34 36 35 35 35 37 39 43 40 35 33 33 36 36 36 39 40 41 41 38 36 35 37 36 35 35 35 37 38 36 32 30 27 28 29 31 31 30 30 29 29 28 29 28 27 27 26 26 25 25 25
36 39 34 35 34 34 38 40 40 41 42 41 39 38 36 35 37 38 38 39 39 40 39 38 38 39 36 36 33 31 30 31 31 31 28 27 29 29 29 29 29 28 28 28 26 25 25 26 25 26 25 24 23 22
39 38 36 36 35 36 38 40 40 40 41 38 38 35 33 34 36 38 37 39 41 41 39 37 38 40 39 38 33 30 29 29 30 31 30 30 30 29 29 28 28 28 27 26 25 24 23 22 22 21 21 21 21 21
38 36 35 32 32 36 38 36 35 35 35 34 34 36 35 34 33 34 36 37 42 39 36 38 36 31 32 31 29 29 29 28 29 30 30 29 29 29 28 27 27 28 26 24 23 22 22 20 19 18 18 18 19 19
34 35 35 34 32 32 34 34 33 32 33 32 32 33 33 31 31 33 36 36 38 38 35 33 32 30 30 31 29 28 27 27 25 25 26 26 26 26 26 26 27 25 23 20 19 18 16 14 12 10 9 9 11 12
MSLP
1017.49 1017.51 1017.61 1017.55 1017.46 1017.40 1017.28 1017.09 1016.92 1016.82 1016.91 1016.76 1016.79 1016.81 1017.37 1017.81 1018.11 1018.53 1018.57 1018.64 1018.83 1018.55 1017.52 1017.09 1016.78 1016.57 1016.15 1015.94 1015.62 1015.08 1014.26 1013.43 1012.92 1012.97 1013.25 1013.33 1013.35 1013.24 1013.22 1013.01 1013.02 1013.29 1013.60 1013.72 1013.74 1013.39 1012.57 1011.65 1011.26 1011.66 1010.81 1010.03 1009.97 1009.29
1017.10 1017.21 1017.11 1017.08 1016.95 1016.87 1016.83 1016.62 1016.54 1016.46 1016.45 1016.37 1016.41 1016.41 1016.83 1017.33 1017.71 1018.12 1018.50 1018.40 1018.63 1018.71 1017.47 1016.73 1016.10 1015.69 1015.51 1015.59 1015.72 1015.43 1014.92 1014.50 1013.52 1013.64 1013.96 1014.20 1014.21 1014.09 1013.89 1013.64 1013.17 1013.45 1013.70 1013.89 1014.03 1013.03 1011.97 1011.70 1011.48 1011.04 1010.89 1010.48 1009.50 1008.62
1016.81 1016.83 1016.78 1016.76 1016.60 1016.39 1016.41 1016.23 1016.07 1016.07 1016.01 1015.93 1015.99 1016.04 1016.38 1016.88 1017.31 1017.75 1018.10 1018.39 1018.66 1018.35 1017.05 1016.16 1015.17 1014.46 1014.64 1014.99 1015.28 1015.84 1014.78 1014.09 1014.01 1013.97 1014.30 1014.78 1014.87 1014.65 1014.39 1013.83 1013.44 1013.47 1013.67 1013.94 1013.94 1012.66 1012.16 1011.40 1011.00 1010.87 1010.64 1009.98 1009.11 1008.08
1016.49 1016.47 1016.46 1016.38 1016.37 1016.03 1015.94 1015.80 1015.60 1015.52 1015.56 1015.45 1015.55 1015.64 1016.04 1016.55 1016.92 1017.36 1017.83 1018.15 1018.44 1018.34 1017.75 1015.78 1014.65 1014.24 1013.83 1014.19 1014.71 1014.87 1014.50 1014.49 1014.39 1014.20 1014.46 1014.89 1015.08 1014.54 1014.30 1014.01 1013.88 1013.98 1013.96 1014.05 1013.85 1012.91 1012.10 1011.12 1011.05 1010.84 1010.07 1009.43 1008.37 1007.43
1016.14 1016.26 1016.11 1016.13 1016.06 1015.74 1015.55 1015.38 1015.21 1015.08 1015.05 1015.01 1015.10 1015.33 1015.81 1016.30 1016.82 1017.19 1017.59 1017.83 1017.99 1018.39 1017.68 1016.12 1015.17 1013.76 1013.35 1013.46 1013.95 1014.25 1014.49 1014.84 1014.74 1014.74 1015.04 1015.13 1014.68 1014.47 1014.33 1014.17 1014.06 1014.00 1014.13 1014.21 1013.71 1013.23 1013.30 1011.99 1011.16 1010.54 1009.68 1008.79 1007.80 1006.68
1015.65 1015.79 1015.70 1015.73 1015.61 1015.41 1015.25 1014.97 1014.84 1014.61 1014.58 1014.67 1014.65 1015.18 1015.73 1016.30 1016.85 1017.31 1017.75 1017.80 1017.77 1018.07 1017.88 1016.68 1014.85 1013.70 1013.11 1012.93 1013.36 1013.74 1014.09 1014.57 1014.83 1014.84 1014.95 1014.85 1014.21 1013.92 1014.07 1014.10 1014.02 1014.10 1014.21 1014.20 1013.86 1013.35 1013.04 1012.04 1011.14 1010.37 1009.49 1008.38 1007.47 1006.39
1015.26 1015.28 1015.22 1015.26 1015.19 1014.96 1014.88 1014.57 1014.46 1014.19 1014.19 1014.36 1014.58 1015.12 1015.68 1016.26 1016.79 1017.27 1017.53 1017.34 1017.53 1017.94 1017.87 1016.62 1015.05 1013.68 1012.82 1012.80 1013.08 1013.42 1013.72 1013.95 1014.30 1014.54 1014.76 1014.48 1014.01 1013.52 1013.74 1013.93 1014.03 1014.15 1014.14 1013.81 1013.55 1013.06 1012.17 1011.66 1010.95 1010.14 1009.17 1008.04 1007.18 1006.16
1014.76 1014.75 1014.72 1014.84 1014.77 1014.54 1014.42 1014.29 1014.02 1013.81 1013.92 1014.19 1014.77 1015.39 1015.96 1016.42 1016.87 1017.09 1017.02 1017.21 1017.45 1017.69 1017.51 1016.58 1015.12 1014.01 1012.92 1012.58 1012.76 1012.82 1013.22 1013.60 1013.85 1014.08 1014.16 1014.00 1013.72 1013.71 1013.81 1013.90 1014.05 1014.20 1014.12 1013.67 1013.32 1013.09 1012.59 1011.75 1010.86 1009.90 1008.81 1007.77 1006.82 1005.64
1014.22 1014.23 1014.23 1014.36 1014.34 1014.12 1013.99 1013.99 1013.67 1013.43 1013.78 1014.52 1015.12 1015.75 1016.39 1016.65 1016.82 1016.67 1016.64 1016.87 1017.27 1017.74 1017.03 1016.26 1015.29 1014.13 1013.43 1012.65 1012.53 1012.74 1012.82 1013.13 1013.45 1013.59 1013.51 1013.69 1013.55 1013.67 1013.71 1014.14 1014.39 1014.31 1014.20 1013.79 1013.24 1012.80 1012.17 1011.46 1010.64 1009.70 1008.79 1008.00 1007.06 1005.85
1013.58 1013.63 1013.70 1013.78 1013.76 1013.65 1013.65 1013.54 1013.26 1013.43 1014.14 1014.82 1015.41 1015.99 1016.29 1016.36 1016.24 1016.49 1016.67 1016.99 1017.16 1017.02 1016.76 1015.80 1015.00 1014.29 1014.05 1013.25 1012.69 1012.94 1012.83 1012.98 1013.26 1013.37 1013.38 1013.55 1013.39 1013.57 1013.97 1014.32 1014.42 1014.27 1014.17 1013.90 1013.40 1012.44 1011.86 1011.10 1010.27 1009.62 1009.18 1008.50 1007.65 1006.69
1013.05 1013.14 1013.10 1013.09 1013.13 1013.24 1013.20 1013.11 1013.10 1013.77 1014.54 1015.01 1015.40 1015.72 1016.03 1015.99 1016.21 1016.42 1016.29 1016.41 1016.49 1016.25 1015.65 1014.86 1014.47 1014.07 1013.80 1013.52 1012.69 1012.76 1012.75 1012.92 1013.15 1013.40 1013.41 1013.46 1013.47 1013.88 1014.31 1014.44 1014.36 1014.24 1014.10 1013.92 1013.56 1012.93 1012.25 1011.55 1010.63 1009.93 1009.28 1008.71 1007.96 1007.00
1012.58 1012.53 1012.46 1012.52 1012.57 1012.76 1012.67 1012.64 1012.92 1013.52 1014.22 1014.53 1015.02 1015.58 1015.89 1016.10 1016.02 1016.03 1015.57 1015.45 1015.39 1014.78 1014.19 1013.90 1013.76 1013.82 1013.43 1013.08 1012.95 1012.68 1012.61 1012.89 1012.98 1013.19 1013.54 1013.38 1013.82 1014.24 1014.50 1014.54 1014.42 1014.22 1014.00 1013.86 1013.41 1012.84 1012.18 1011.55 1010.91 1010.30 1009.69 1009.00 1008.29 1007.50
1012.08 1012.00 1011.94 1012.03 1012.09 1012.22 1012.26 1012.38 1012.85 1013.46 1013.98 1014.80 1015.20 1015.50 1015.64 1015.77 1015.66 1015.01 1014.59 1014.12 1013.82 1013.43 1013.18 1013.02 1013.06 1012.96 1012.98 1012.79 1012.61 1012.38 1012.46 1013.03 1013.05 1013.34 1013.53 1013.70 1014.27 1014.52 1014.67 1014.63 1014.51 1014.34 1014.21 1013.97 1013.56 1012.96 1012.39 1011.80 1011.17 1010.61 1010.05 1009.47 1008.65 1007.88
1011.64 1011.52 1011.40 1011.54 1011.63 1011.74 1011.70 1012.42 1012.86 1013.43 1013.92 1014.65 1014.93 1015.18 1015.12 1014.71 1014.38 1013.59 1013.33 1013.03 1012.83 1012.53 1012.32 1012.24 1012.16 1012.15 1011.91 1012.30 1012.19 1012.39 1012.72 1012.92 1013.42 1013.66 1014.01 1014.29 1014.56 1014.72 1014.82 1014.80 1014.73 1014.68 1014.48 1014.18 1013.74 1013.24 1012.64 1012.09 1011.53 1011.00 1010.38 1009.75 1009.12 1008.28
1011.02 1010.90 1010.94 1011.08 1011.19 1011.34 1011.59 1012.29 1012.97 1013.36 1013.88 1014.42 1014.62 1014.36 1014.05 1013.56 1013.21 1012.92 1012.76 1012.79 1012.50 1012.16 1012.09 1011.85 1011.59 1011.52 1011.66 1011.88 1012.23 1012.65 1013.14 1013.35 1013.77 1014.23 1014.64 1014.73 1014.82 1014.94 1014.99 1014.92 1014.85 1014.76 1014.60 1014.33 1014.02 1013.71 1013.24 1012.62 1012.07 1011.49 1010.80 1010.09 1009.62 1008.95
1010.48 1010.55 1010.48 1010.42 1010.72 1011.00 1011.70 1012.62 1013.32 1013.68 1014.01 1014.16 1014.14 1013.78 1013.42 1013.25 1012.81 1012.61 1012.42 1012.27 1012.01 1011.85 1011.66 1011.54 1011.34 1011.33 1011.67 1012.12 1012.65 1013.00 1013.51 1013.84 1014.29 1014.42 1014.61 1014.82 1015.05 1015.07 1015.12 1015.07 1014.98 1014.89 1014.78 1014.64 1014.38 1014.13 1013.80 1013.22 1012.68 1012.15 1011.39 1010.62 1010.05 1009.57
1010.13 1009.91 1009.71 1010.08 1010.52 1011.11 1011.79 1012.90 1013.57 1013.90 1014.08 1013.84 1013.52 1013.24 1013.19 1013.01 1012.52 1012.18 1011.89 1011.68 1011.54 1011.65 1011.34 1011.25 1011.21 1011.44 1011.95 1012.40 1012.91 1013.35 1013.67 1013.66 1013.95 1014.47 1014.72 1014.78 1015.04 1015.23 1015.22 1015.16 1015.13 1015.13 1015.15 1015.03 1014.77 1014.48 1014.30 1013.90 1013.33 1012.63 1011.91 1011.28 1010.68 1010.19
1009.78 1009.57 1009.72 1010.02 1010.78 1011.78 1012.71 1013.08 1013.42 1013.66 1013.53 1013.32 1013.23 1012.82 1012.67 1012.49 1012.21 1011.88 1011.72 1011.58 1011.72 1011.60 1011.21 1010.91 1010.86 1011.56 1012.01 1012.17 1012.67 1012.73 1013.17 1013.67 1014.07 1014.41 1014.63 1014.88 1015.16 1015.17 1015.26 1015.47 1015.52 1015.54 1015.54 1015.41 1015.19 1014.97 1014.66 1014.22 1013.72 1013.39 1012.88 1012.17 1011.53 1010.94
1009.42 1009.59 1009.81 1010.20 1010.74 1011.92 1012.82 1013.27 1013.32 1013.22 1012.98 1012.92 1012.72 1012.53 1012.26 1011.97 1011.67 1011.50 1011.46 1011.56 1011.58 1011.46 1011.44 1010.98 1010.96 1011.38 1011.58 1011.49 1011.81 1012.43 1012.92 1013.39 1014.13 1014.64 1014.90 1014.99 1015.09 1015.30 1015.62 1015.82 1015.96 1016.03 1016.02 1015.99 1015.82 1015.63 1015.40 1015.08 1014.84 1014.36 1013.76 1013.06 1012.51 1012.12
1009.23 1009.45 1010.12 1010.65 1010.91 1011.75 1012.54 1012.86 1012.96 1012.86 1012.73 1012.48 1012.23 1012.24 1011.98 1011.62 1011.23 1011.12 1011.19 1011.33 1011.49 1011.44 1011.31 1010.93 1010.73 1010.65 1010.78 1010.88 1011.20 1011.78 1012.48 1013.10 1013.87 1014.76 1015.30 1015.44 1015.54 1015.71 1016.10 1016.30 1016.52 1016.61 1016.59 1016.58 1016.45 1016.19 1015.96 1015.61 1015.21 1014.87 1014.44 1014.00 1013.52 1013.16
1009.61 1010.20 1010.60 1010.83 1011.22 1011.57 1011.93 1012.34 1012.50 1012.40 1012.18 1012.05 1011.68 1011.78 1011.54 1011.20 1011.01 1011.01 1010.87 1011.12 1011.36 1011.04 1010.73 1010.42 1010.45 1010.50 1010.66 1010.82 1011.04 1011.56 1012.40 1012.95 1013.74 1014.24 1015.00 1015.82 1016.15 1016.29 1016.65 1016.88 1016.98 1017.02 1017.07 1017.09 1016.98 1016.77 1016.51 1016.38 1016.11 1015.61 1015.18 1014.77 1014.46 1014.14
1009.86 1010.37 1010.94 1011.20 1011.35 1011.46 1011.53 1011.79 1011.76 1011.81 1011.96 1011.45 1011.31 1011.23 1011.14 1010.79 1010.66 1010.68 1010.78 1011.01 1010.73 1010.18 1010.06 1010.12 1010.32 1010.57 1010.87 1011.21 1011.57 1011.86 1012.38 1013.04 1013.75 1014.36 1014.97 1015.59 1016.44 1016.94 1017.16 1017.30 1017.34 1017.58 1017.55 1017.57 1017.44 1017.33 1017.19 1016.97 1016.55 1016.24 1015.91 1015.62 1015.24 1014.82
1009.92 1010.55 1011.11 1011.32 1011.48 1011.54 1011.58 1011.31 1011.44 1011.27 1011.41 1011.03 1010.92 1010.75 1010.71 1010.34 1010.30 1010.47 1010.69 1010.64 1010.28 1009.94 1009.93 1010.07 1010.47 1010.76 1010.96 1011.43 1011.81 1012.31 1012.80 1013.30 1014.28 1014.95 1015.60 1016.14 1016.63 1017.04 1017.34 1017.55 1017.62 1017.76 1017.89 1017.91 1017.73 1017.58 1017.50 1017.26 1017.01 1016.73 1016.44 1016.12 1015.76 1015.40
1010.06 1010.75 1011.04 1011.15 1011.30 1011.33 1011.27 1011.14 1011.10 1010.94 1010.92 1010.64 1010.38 1010.38 1010.08 1010.09 1010.27 1010.48 1010.53 1010.19 1010.03 1010.01 1010.12 1010.35 1010.78 1011.42 1011.86 1012.15 1012.67 1013.24 1013.56 1013.85 1014.74 1015.57 1016.06 1016.44 1017.14 1017.67 1017.75 1017.94 1018.00 1018.06 1018.05 1018.05 1017.95 1017.93 1017.85 1017.72 1017.52 1017.29 1017.06 1016.78 1016.49 1016.21
1010.53 1011.00 1011.06 1010.98 1011.01 1011.00 1010.90 1010.60 1010.64 1010.59 1010.19 1010.22 1009.99 1010.01 1009.91 1010.15 1010.40 1010.59 1010.32 1010.15 1010.22 1010.41 1010.65 1011.02 1011.30 1011.60 1012.35 1013.16 1013.74 1013.97 1014.12 1014.22 1014.99 1016.07 1016.66 1016.81 1017.24 1017.89 1018.24 1018.37 1018.40 1018.36 1018.21 1018.16 1018.27 1018.22 1018.21 1018.03 1017.85 1017.68 1017.54 1017.38 1017.17 1016.87
1010.13 1010.31 1010.36 1010.11 1010.28 1010.26 1010.27 1010.10 1010.12 1009.91 1009.75 1009.63 1009.66 1009.69 1009.79 1010.17 1010.37 1010.26 1010.03 1009.86 1009.96 1010.25 1010.68 1011.01 1011.54 1012.39 1013.07 1013.25 1013.94 1014.54 1014.76 1014.87 1015.19 1016.12 1017.05 1017.23 1017.47 1017.75 1018.35 1018.63 1018.74 1018.73 1018.58 1018.50 1018.44 1018.50 1018.44 1018.38 1018.30 1018.20 1018.13 1018.11 1018.00 1017.67
1009.70 1009.67 1009.74 1009.54 1009.55 1009.52 1009.51 1009.30 1009.18 1009.21 1009.16 1008.99 1009.11 1009.57 1009.91 1010.21 1010.28 1010.13 1009.79 1009.77 1009.83 1009.97 1010.23 1010.71 1011.14 1011.92 1012.90 1013.83 1014.45 1014.74 1014.99 1015.29 1015.68 1016.29 1017.00 1017.54 1017.83 1018.02 1018.24 1018.64 1018.90 1019.23 1019.06 1019.00 1019.02 1019.06 1019.10 1019.06 1019.01 1018.98 1018.92 1018.80 1018.72 1018.52
1008.93 1008.92 1008.98 1009.08 1009.14 1009.06 1009.04 1009.01 1008.89 1008.68 1008.52 1008.58 1009.17 1009.55 1010.00 1010.20 1010.61 1010.41 1010.12 1009.98 1009.86 1010.03 1010.60 1011.37 1011.82 1012.30 1013.18 1013.95 1014.55 1015.04 1015.75 1016.08 1016.41 1016.95 1017.52 1018.26 1018.62 1018.74 1018.84 1019.05 1019.32 1019.50 1019.66 1019.76 1019.87 1019.91 1019.94 1019.96 1019.93 1019.89 1019.82 1019.74 1019.60 1019.32
1008.45 1008.28 1008.59 1008.87 1008.90 1009.02 1008.95 1008.79 1008.50 1008.20 1008.06 1008.53 1009.12 1009.77 1010.39 1010.76 1011.10 1010.94 1010.65 1010.47 1010.40 1010.36 1011.18 1012.21 1013.20 1013.46 1014.16 1014.83 1015.33 1015.81 1016.24 1016.41 1016.92 1017.80 1018.42 1019.13 1019.55 1019.96 1019.79 1019.81 1020.02 1020.22 1020.40 1020.55 1020.66 1020.69 1020.72 1020.70 1020.65 1020.59 1020.55 1020.47 1020.32 1020.00
1007.99 1008.04 1008.40 1008.61 1008.73 1008.62 1008.46 1008.35 1008.24 1008.25 1008.33 1008.71 1009.29 1010.16 1010.86 1011.45 1011.60 1011.31 1011.12 1011.10 1011.17 1011.33 1011.79 1012.48 1013.20 1013.74 1014.72 1015.46 1016.41 1017.07 1017.35 1017.42 1017.47 1017.82 1018.58 1019.22 1019.56 1019.97 1020.18 1020.45 1020.71 1020.91 1021.03 1021.16 1021.31 1021.39 1021.34 1021.28 1021.26 1021.14 1021.02 1020.95 1020.82 1020.50
1007.54 1007.83 1008.11 1008.41 1008.65 1008.76 1008.73 1008.70 1008.76 1008.88 1009.14 1009.65 1009.91 1010.50 1011.25 1011.72 1011.99 1012.08 1012.03 1011.89 1011.96 1012.33 1012.63 1013.33 1014.03 1014.36 1014.95 1015.88 1016.57 1017.31 1018.12 1018.35 1018.18 1018.27 1018.53 1019.07 1019.69 1020.23 1020.66 1020.97 1021.18 1021.36 1021.55 1021.71 1021.86 1021.95 1022.00 1022.02 1022.03 1022.00 1021.89 1021.74 1021.59 1021.34
1007.42 1007.60 1007.98 1008.52 1008.96 1009.18 1009.14 1009.37 1009.69 1009.96 1010.24 1010.50 1010.99 1011.25 1011.71 1012.04 1012.60 1013.07 1013.27 1012.87 1012.76 1013.12 1013.66 1013.99 1014.77 1015.68 1015.96 1016.41 1016.92 1017.27 1017.53 1018.49 1018.82 1019.06 1019.31 1019.77 1020.30 1020.73 1021.08 1021.40 1021.64 1021.91 1022.14 1022.34 1022.52 1022.63 1022.70 1022.87 1022.97 1022.99 1022.95 1022.81 1022.57 1022.27
1007.67 1007.88 1008.19 1008.58 1009.01 1009.37 1009.76 1009.91 1010.31 1010.67 1010.91 1011.22 1011.63 1011.95 1012.31 1012.74 1013.28 1013.77 1013.76 1013.71 1013.55 1013.82 1014.38 1015.15 1015.84 1016.32 1016.72 1017.14 1017.70 1018.33 1018.75 1019.15 1019.48 1019.87 1020.14 1020.46 1020.84 1021.28 1021.61 1021.93 1022.12 1022.51 1022.77 1023.02 1023.24 1023.40 1023.62 1023.78 1023.90 1023.96 1023.92 1023.82 1023.65 1023.35
Wind_Speed
10 9 10 10 10 10 13 10 9 9 9 10 10 11 13 11 9 5 1 4 3 3 6 8 5 6 5 3 2 4 6 1 1 2 1 1 0 1 2 1 0 3 2 3 2 2 6 1 4 2 5 11 16 18
9 9 10 11 9 10 10 9 9 9 9 10 10 11 15 13 10 8 2 1 2 2 5 4 13 14 14 12 0 2 2 3 2 1 0 0 1 2 2 2 1 2 4 2 6 6 4 3 7 10 6 15 18 20
11 11 10 10 9 9 10 11 11 11 11 10 9 10 14 14 11 10 2 2 1 3 5 3 5 4 9 16 11 4 3 2 2 2 3 1 0 3 1 3 2 3 2 2 4 4 4 11 8 3 14 17 21 23
11 10 9 9 9 10 11 11 11 11 11 10 9 10 13 13 10 9 3 3 1 1 3 6 5 4 2 8 12 13 3 4 2 1 2 2 2 3 2 1 1 1 1 2 7 8 11 6 13 14 19 21 21 22
10 12 11 13 13 11 11 12 12 11 10 9 9 12 12 10 7 3 2 3 2 1 3 7 10 6 4 10 12 12 10 2 3 3 2 2 2 2 0 1 2 0 1 1 4 4 5 13 15 21 21 22 21 25
10 12 12 12 12 11 12 12 12 11 10 9 10 13 13 10 10 3 1 2 4 2 2 4 4 5 4 1 6 7 5 3 2 1 1 2 4 1 1 2 2 2 2 4 5 8 13 16 16 15 20 21 21 24
11 12 11 12 13 11 12 13 13 11 9 9 12 12 13 13 3 2 1 1 7 3 2 5 4 3 4 5 3 3 4 2 2 1 1 2 2 1 1 2 2 3 5 8 6 10 9 8 15 19 19 20 22 23
12 12 11 13 13 12 12 13 12 9 8 11 13 13 8 11 4 1 2 7 6 2 2 3 4 3 4 2 2 3 3 3 2 2 1 2 1 0 2 3 2 5 7 6 9 10 11 14 15 16 17 18 22 22
13 12 12 12 12 12 12 12 11 7 14 17 16 15 4 2 1 2 6 11 2 1 2 2 2 2 5 2 3 2 2 2 1 2 1 2 2 3 2 1 2 4 4 9 12 11 11 13 14 16 19 20 20 22
12 12 12 11 10 12 13 12 9 19 21 21 4 2 2 3 4 9 2 2 1 3 3 3 2 2 1 3 1 1 2 2 2 2 3 2 2 3 3 2 4 4 6 7 10 14 15 15 16 18 18 16 17 19
12 14 14 13 12 12 12 12 18 23 11 2 2 2 1 7 2 2 2 3 2 3 4 3 5 1 2 3 2 3 2 2 2 2 2 2 2 3 2 1 2 4 5 6 7 9 11 12 14 16 16 17 17 19
12 13 11 11 11 12 12 11 26 6 4 5 4 3 2 2 2 3 3 3 4 4 4 3 3 3 3 3 2 2 3 2 2 4 2 2 2 2 1 2 4 5 6 7 8 10 12 12 12 13 14 15 16 17
12 12 11 10 11 11 10 24 16 19 10 3 2 2 2 2 3 5 4 3 3 3 3 3 3 3 3 3 3 2 2 2 4 3 2 1 2 1 1 3 5 6 7 7 8 9 10 12 12 12 13 13 16 15
13 13 11 10 10 8 6 22 23 10 4 2 4 4 4 4 4 4 3 1 0 1 4 1 2 4 3 3 1 3 1 2 2 2 3 2 4 2 2 2 3 5 6 6 7 9 13 13 12 12 12 12 14 16
13 12 9 9 9 8 18 23 14 2 3 3 3 4 6 4 3 3 3 1 2 3 2 3 2 2 2 2 2 2 2 2 3 4 3 3 3 2 1 2 3 5 5 5 5 7 11 12 11 12 13 12 12 15
12 7 5 9 10 8 24 13 3 2 1 2 4 3 2 2 3 1 3 3 3 2 2 1 2 1 2 2 1 3 3 4 4 3 3 4 3 2 1 2 3 3 5 5 5 5 7 11 12 11 12 13 13 15
7 3 7 10 7 24 18 5 2 3 3 3 3 2 2 2 2 2 3 1 1 2 2 2 2 2 2 1 2 3 5 4 3 2 3 5 4 3 2 3 4 5 5 6 5 6 6 8 9 9 13 14 13 15
3 2 10 16 18 7 3 2 2 3 5 4 3 2 3 3 2 2 1 0 1 2 3 2 3 2 2 3 3 3 2 2 2 4 4 3 3 2 3 6 5 5 4 5 6 6 5 9 10 10 11 12 10 12
4 3 25 23 9 5 3 1 2 3 4 2 2 2 2 2 3 3 2 3 2 2 3 2 2 2 4 3 3 3 3 3 4 2 3 3 3 6 6 5 5 5 5 5 6 5 4 6 6 6 7 9 9 9
6 17 20 13 3 3 3 2 1 2 3 3 2 2 3 3 2 3 3 2 1 2 2 3 3 3 3 2 3 4 4 4 5 4 3 2 3 6 5 4 4 3 4 4 4 5 4 5 6 6 7 8 9 10
8 9 9 3 1 2 2 3 3 2 2 2 2 3 3 2 2 2 2 1 0 3 3 3 2 1 0 2 3 4 6 6 4 4 4 4 2 5 4 3 4 4 3 3 4 4 6 4 5 5 6 8 8 8
4 7 3 2 1 1 1 3 3 2 2 2 1 3 2 2 2 3 3 3 3 3 3 3 2 3 3 4 3 3 6 7 6 6 9 9 4 3 2 2 3 3 3 3 3 3 3 3 4 5 6 6 8 7
9 4 2 2 2 1 1 1 2 3 2 2 2 2 2 2 2 3 2 4 4 2 2 3 4 3 6 4 7 7 6 9 6 7 6 5 4 4 4 3 3 4 4 3 2 3 3 5 6 6 6 7 7 8
5 3 3 3 3 3 1 3 1 2 2 3 3 2 2 1 2 1 3 2 2 1 2 6 7 5 4 5 4 4 4 6 7 5 4 7 5 3 3 3 3 3 2 1 3 3 3 3 4 4 6 7 8 8
5 4 4 4 2 4 4 4 4 3 3 4 4 2 2 2 2 2 2 2 2 2 3 4 3 4 5 3 3 3 4 5 9 7 2 3 5 4 4 3 3 3 2 4 4 4 3 4 5 6 8 9 11 11
3 5 6 7 5 4 6 4 6 6 3 4 4 2 2 2 3 3 3 3 3 4 6 7 6 4 3 2 5 3 3 3 6 5 2 3 3 5 4 3 2 4 4 3 3 5 6 6 7 10 10 11 12 12
5 5 3 3 3 3 2 2 2 3 4 4 3 3 2 3 3 2 2 1 2 3 4 4 5 6 6 4 4 4 4 4 4 5 5 4 3 3 4 4 3 1 3 5 5 5 6 7 8 8 9 8 10 10
2 4 5 5 3 1 2 2 3 4 3 2 4 4 5 4 3 2 2 3 2 6 8 6 5 6 6 5 6 8 8 8 10 9 8 8 6 5 5 5 6 10 6 5 5 5 6 6 6 7 8 8 8 9
3 2 3 4 2 2 3 3 3 2 2 3 3 2 2 2 2 3 3 2 2 7 9 8 6 8 9 8 7 6 5 7 11 9 8 4 3 2 3 4 5 5 4 5 7 7 8 6 7 6 7 7 7 7
3 3 3 4 3 4 3 2 1 1 3 3 4 3 3 3 4 3 2 3 3 4 6 8 8 9 9 9 7 6 5 4 3 5 6 4 4 4 4 4 4 4 4 5 5 5 6 6 6 6 7 7 7 8
4 3 3 2 2 1 2 3 4 4 4 4 4 3 3 3 2 5 6 3 6 7 9 9 8 7 10 7 5 6 4 4 4 7 7 6 6 6 5 5 4 4 5 5 5 5 5 6 7 7 9 10 11 10
3 3 3 3 2 1 3 3 2 3 2 2 2 2 2 3 3 4 6 3 6 7 6 8 6 3 5 6 5 5 9 6 5 6 8 7 6 6 6 5 4 5 6 6 6 6 7 7 7 8 8 10 11 12
2 2 3 3 2 3 1 2 2 2 3 2 3 2 2 2 3 1 2 5 3 5 7 7 7 6 9 10 9 8 8 7 9 10 10 10 9 8 5 4 5 6 7 6 6 6 8 8 6 7 7 7 8 10
Wind_Direction
261 261 265 273 275 279 290 283 279 275 278 275 267 217 201 206 225 164 231 187 185 235 266 253 249 242 247 206 228 330 321 327 309 51 50 288 211 305 37 296 17 162 212 239 302 276 287 326 305 113 270 302 307 300
268 272 278 269 270 281 284 278 276 273 272 268 261 221 200 200 218 174 224 170 132 240 264 241 258 247 237 232 174 259 294 301 289 88 62 98 336 28 137 285 110 227 187 236 187 228 242 234 238 286 279 302 299 297
287 281 278 278 273 276 281 279 276 274 266 259 252 238 200 198 207 187 159 134 138 273 271 279 269 261 222 231 226 230 245 318 352 258 157 137 247 127 119 263 9 47 12 258 8 281 279 298 308 272 319 309 304 301
289 286 288 288 289 287 283 284 278 267 260 253 238 226 197 198 204 181 162 156 144 286 285 283 301 287 252 187 193 210 268 358 300 358 74 125 191 167 236 284 201 204 14 245 265 290 311 258 328 315 309 306 308 310
290 289 288 289 289 296 292 288 281 270 257 252 238 190 191 178 185 175 128 179 185 219 287 290 306 257 225 188 210 210 228 239 332 346 56 235 245 122 87 78 257 164 312 284 278 306 275 290 305 308 307 314 315 316
277 279 282 285 288 293 294 292 284 269 250 237 204 180 164 162 124 100 285 171 174 174 280 289 307 286 331 172 166 181 181 170 222 223 256 269 253 139 203 227 123 72 284 239 270 292 285 282 293 312 313 313 313 313
272 278 282 285 288 289 293 294 288 273 241 220 173 163 155 155 131 167 196 141 155 134 246 284 293 270 258 213 166 140 163 190 180 154 250 210 296 41 222 242 124 315 301 298 276 303 299 311 312 314 313 313 315 311
266 271 277 280 282 286 295 291 290 263 209 156 143 138 145 143 94 242 195 152 148 190 232 273 276 296 349 211 148 179 144 164 152 194 224 208 132 242 251 115 20 332 306 295 320 317 298 306 309 318 321 324 324 324
262 269 271 273 279 284 291 294 286 217 138 126 118 112 92 89 159 228 183 184 174 278 260 245 268 286 339 274 119 88 73 178 127 222 228 88 216 229 119 120 307 289 331 309 317 318 319 318 319 326 335 329 326 331
256 256 255 258 268 279 280 293 273 137 129 125 100 121 184 204 180 134 145 149 169 207 229 250 259 257 291 329 106 176 192 172 191 233 118 218 251 99 103 185 251 327 334 336 330 334 330 324 330 338 330 329 329 330
264 265 265 262 259 274 274 287 146 127 117 94 122 147 94 142 184 167 226 215 172 240 218 236 206 226 169 211 216 204 172 145 173 184 243 214 237 128 123 7 295 332 322 317 302 306 315 316 321 330 330 333 334 334
271 275 265 266 250 261 269 187 146 126 139 141 117 109 123 181 194 246 206 179 213 247 201 213 191 196 250 210 214 201 160 134 193 140 233 233 87 107 72 316 314 327 338 330 324 322 326 328 330 329 332 337 337 337
279 279 261 253 248 249 275 166 141 121 112 84 104 146 160 146 213 224 205 201 226 201 224 200 176 214 217 211 241 167 156 161 119 205 213 96 139 156 304 320 341 355 356 338 332 338 339 343 343 343 340 341 340 345
272 278 263 241 251 235 231 151 143 138 99 135 159 171 202 191 234 211 209 195 238 312 285 215 248 187 186 166 179 108 106 151 232 238 203 190 175 192 327 330 27 344 347 342 338 341 351 354 347 344 346 344 348 351
276 273 240 234 221 232 164 153 146 76 107 153 192 215 216 241 278 246 209 68 260 265 305 301 251 187 196 127 22 97 136 257 204 226 222 190 178 148 52 7 7 359 351 344 339 350 358 355 352 345 345 344 355 356
275 245 219 200 199 192 147 121 63 70 64 215 210 242 225 236 244 214 208 256 223 229 245 226 304 238 54 103 136 211 129 220 244 209 203 153 159 122 46 358 357 7 18 2 353 352 357 357 353 344 344 353 1 2
243 237 190 180 181 145 126 84 91 155 202 217 229 224 237 297 279 239 248 216 256 334 259 179 214 123 90 324 261 177 195 216 178 166 165 169 126 91 90 39 50 66 44 18 357 4 360 345 355 358 1 353 358 4
230 215 160 139 118 87 54 75 124 188 225 225 231 223 184 198 230 260 11 139 72 323 306 339 107 104 249 200 256 218 163 111 96 142 150 123 113 115 115 102 75 71 54 26 15 4 352 7 14 6 351 346 352 358
179 211 149 145 111 104 118 153 207 217 216 215 223 236 234 253 219 219 182 207 254 237 286 300 151 189 233 213 173 160 144 139 138 131 92 111 123 116 109 94 83 67 56 34 20 15 5 359 352 348 360 1 4 0
196 155 137 126 71 104 134 145 213 222 217 225 203 197 199 210 213 176 208 177 215 224 236 218 219 223 205 207 170 140 137 127 119 103 81 43 96 105 97 99 85 75 60 37 28 16 4 9 12 3 3 10 9 5
97 122 107 93 94 112 154 150 182 236 230 214 205 168 228 196 185 186 168 140 138 226 219 218 234 266 331 78 112 113 131 134 153 148 153 126 98 106 102 82 81 64 66 39 35 10 27 15 344 350 3 10 6 8
89 98 95 40 78 184 161 188 174 197 165 288 190 184 226 206 183 177 134 211 235 227 198 173 166 147 121 112 136 132 125 106 101 96 88 112 115 113 98 107 88 72 55 41 40 40 25 352 356 6 9 1 2 4
100 62 83 135 141 128 201 188 195 185 207 220 157 193 239 192 177 135 173 206 239 241 194 118 98 73 107 94 93 82 107 123 106 106 106 101 98 98 102 83 94 99 70 20 14 40 34 14 10 14 3 7 7 8
92 90 155 149 170 166 195 191 224 215 190 247 185 222 207 118 115 155 237 230 239 110 118 128 127 101 62 60 76 81 75 103 101 80 98 122 114 89 94 95 82 70 88 126 63 48 30 22 20 18 17 15 13 9
115 167 148 151 203 172 188 175 173 222 227 203 189 216 169 126 127 189 236 241 146 138 111 102 93 113 123 94 73 81 38 134 134 128 76 110 111 89 67 61 60 37 359 64 41 41 29 25 27 25 23 19 12 5
138 181 180 183 168 198 191 177 194 202 191 178 206 159 160 143 187 215 228 192 187 158 162 158 143 111 72 129 136 139 153 112 113 99 105 133 131 132 132 108 64 3 10 35 55 40 28 23 24 21 17 14 10 5
169 184 203 227 173 179 210 197 151 141 187 195 147 143 159 171 221 268 297 191 175 183 136 139 147 141 143 125 87 81 83 75 101 123 109 92 83 105 121 128 119 56 35 52 50 43 33 21 18 15 10 9 9 3
223 175 178 174 180 147 173 159 178 199 171 158 139 178 172 181 187 306 335 337 144 112 94 75 65 95 106 107 115 110 94 99 93 93 84 57 45 47 67 77 78 83 73 60 55 46 43 36 28 22 17 10 359 358
215 158 111 147 115 159 192 216 208 224 132 138 131 115 117 54 348 317 345 29 102 116 106 102 83 96 87 79 68 67 109 128 128 119 111 122 102 46 41 73 79 75 70 70 55 53 52 48 41 32 25 15 1 354
170 132 134 148 183 197 170 214 140 73 43 88 107 94 65 40 347 333 38 66 74 101 108 116 126 120 118 120 112 68 26 36 59 132 145 163 168 136 108 97 89 79 72 75 68 51 34 46 38 35 32 23 13 3
130 132 135 115 119 32 32 70 53 41 50 43 36 77 114 149 78 28 29 33 100 107 110 108 107 120 127 140 135 125 100 12 78 98 98 104 113 110 108 101 92 84 79 78 72 65 62 52 42 36 31 26 18 14
143 147 126 117 111 55 49 51 55 56 47 60 69 60 59 61 70 21 355 352 119 112 101 110 108 88 75 87 80 80 99 115 103 105 105 106 102 104 103 97 89 90 85 80 72 68 62 59 51 41 31 23 18 13
81 88 94 106 117 116 95 98 79 83 52 64 57 61 53 81 105 77 17 7 84 122 104 90 92 94 94 96 100 96 86 87 85 85 87 91 98 104 102 98 99 99 94 88 79 77 70 69 58 45 34 24 15 10